Satellite: FAST1-2
Catalog number: 37227
Epoch time:      11041.43153630
Element set:    0075
Inclination:      071.9753 deg
RA of node:       318.7141 deg
Eccentricity:    0.0016999
Arg of perigee:   162.2837 deg
Mean anomaly:     197.8952 deg
Mean motion:   14.76390201 rev/day
Decay rate:       1.44e-06 rev/day^2
Epoch rev:           01215
Checksum:              290

/EX
SB KEPS @ AMSAT  $ORB11041.W
Orbital Elements  11041.WEATHER

HR AMSAT ORBITAL ELEMENTS FOR WEATHER SATELLITES
FROM WA5QGD FORT WORTH,TX February 10, 2011
Send Subscribe/unsubscribe to KEPS at http://www.amsat.org/mailman/listinfo/kep
BID: ORB11041.W
TO ALL RADIO AMATEURS BT

Satellite: NOAA-10
Catalog number: 16969
Epoch time:      11040.70761785
Element set:    0392
Inclination:      098.6333 deg
RA of node:       072.1450 deg
Eccentricity:    0.0011541
Arg of perigee:   236.4206 deg
Mean anomaly:     123.5873 deg
Mean motion:   14.27442747 rev/day
Decay rate:       -7.3e-07 rev/day^2
Epoch rev:           26946
Checksum:              299

Satellite: NOAA-11
Catalog number: 19531
Epoch time:      11040.84196459
Element set:    0397
Inclination:      098.7560 deg
RA of node:       130.7060 deg
Eccentricity:    0.0011009
Arg of perigee:   187.9345 deg
Mean anomaly:     172.1640 deg
Mean motion:   14.14903064 rev/day
Decay rate:       -7.8e-07 rev/day^2
Epoch rev:           15474
Checksum:              293

Satellite: NOAA-12
Catalog number: 21263
Epoch time:      11040.84905362
Element set:    0891
Inclination:      098.7566 deg
RA of node:       058.8785 deg
Eccentricity:    0.0012254
Arg of perigee:   193.0718 deg
Mean anomaly:     167.0142 deg
Mean motion:   14.25682793 rev/day
Decay rate:       1.38e-06 rev/day^2
Epoch rev:           02626
Checksum:              309

Satellite: MET-3/5
Catalog number: 21655
Epoch time:      11041.57024147
Element set:      34
Inclination:      082.5598 deg
RA of node:       140.2341 deg
Eccentricity:    0.0014702
Arg of perigee:   112.3464 deg
Mean anomaly:     247.9188 deg
Mean motion:   13.17024042 rev/day
Decay rate:        5.1e-07 rev/day^2
Epoch rev:           93705
Checksum:              262

Satellite: MET-2/21
Catalog number: 22782
Epoch time:      11040.84098171
Element set:    0015
Inclination:      082.5447 deg
RA of node:       063.9161 deg
Eccentricity:    0.0024046
Arg of perigee:   095.4411 deg
Mean anomaly:     264.9495 deg
Mean motion:   13.83652155 rev/day
Decay rate:        1.4e-07 rev/day^2
Epoch rev:           88094
Checksum:              295

Satellite: OKEAN-4
Catalog number: 23317
Epoch time:      11041.72181120
Element set:     470
Inclination:      082.5423 deg
RA of node:       131.2186 deg
Eccentricity:    0.0022242
Arg of perigee:   171.6576 deg
Mean anomaly:     188.5025 deg
Mean motion:   14.82936063 rev/day
Decay rate:       1.74e-06 rev/day^2
Epoch rev:           88180
Checksum:              269

Satellite: NOAA-14
Catalog number: 23455
Epoch time:      11040.93246973
Element set:    0377
Inclination:      098.8584 deg
RA of node:       124.8064 deg
Eccentricity:    0.0008645
Arg of perigee:   283.0861 deg
Mean anomaly:     076.9332 deg
Mean motion:   14.13805289 rev/day
Decay rate:       -2.6e-07 rev/day^2
Epoch rev:           83109
Checksum:              320

Satellite: NOAA-15
Catalog number: 25338
Epoch time:      11040.71564463
Element set:    0704
Inclination:      098.6446 deg
RA of node:       028.6812 deg
Eccentricity:    0.0011581
Arg of perigee:   102.2799 deg
Mean anomaly:     257.9675 deg
Mean motion:   14.24882318 rev/day
Decay rate:        9.9e-07 rev/day^2
Epoch rev:           66257
Checksum:              327

Satellite: RESURS
Catalog number: 25394
Epoch time:      11041.65086625
Element set:     721
Inclination:      098.2991 deg
RA of node:       051.6454 deg
Eccentricity:    0.0000466
Arg of perigee:   244.5472 deg
Mean anomaly:     115.5657 deg
Mean motion:   14.24222741 rev/day
Decay rate:       -2.3e-07 rev/day^2
Epoch rev:           65429
Checksum:              286

Satellite: FENGYUN1
Catalog number: 25730
Epoch time:      11040.95038729
Element set:    0257
Inclination:      098.8063 deg
RA of node:       005.0079 deg
Eccentricity:    0.0022454
Arg of perigee:   311.0782 deg
Mean anomaly:     048.8516 deg
Mean motion:   14.08490909 rev/day
Decay rate:        9.1e-07 rev/day^2
Epoch rev:           60515
Checksum:              288

Satellite: OKEAN-0
Catalog number: 25860
Epoch time:      11040.51881054
Element set:    0227
Inclination:      097.8668 deg
RA of node:       010.6051 deg
Eccentricity:    0.0001840
Arg of perigee:   058.9783 deg
Mean anomaly:     301.1601 deg
Mean motion:   14.73707616 rev/day
Decay rate:        9.1e-07 rev/day^2
Epoch rev:           62185
Checksum:              277

Satellite: NOAA-16
Catalog number: 26536
Epoch time:      11040.79528793
Element set:    0184
Inclination:      099.1536 deg
RA of node:       068.6720 deg
Eccentricity:    0.0010914
Arg of perigee:   034.5327 deg
Mean anomaly:     325.6544 deg
Mean motion:   14.12594672 rev/day
Decay rate:      -2.62e-06 rev/day^2
Epoch rev:           53537
Checksum:              313

